Weather History for Cocoa Beach, FL

Change the Weather History Date:

Wednesday, June 26, 2013

  Actual Average Record
Temperature  
Mean Temperature 82 °F -  
Max Temperature 85 °F 84 °F 89 °F (2004)
Min Temperature 77 °F 73 °F 73 °F (1999)
Cooling Degree Days 16    
Growing Degree Days 32 (Base 50)    
Moisture  
Dew Point 76 °F    
Average Humidity 84    
Maximum Humidity 90    
Minimum Humidity 72    
Precipitation  
Precipitation 0.06 in - - ()
Sea Level Pressure  
Sea Level Pressure 30.08 in    
Wind  
Wind Speed 8 mph (SSE)    
Max Wind Speed 13 mph    
Max Gust Speed -    
Visibility 10 miles    
Events Rain , Thunderstorm    
Averages and records for this station are not official NWS values.
T = Trace of Precipitation, MM = Missing Value Source: NWS Daily Summary

Daily Weather History Graph

Daily Weather History Graph

Search for Another Location

Airport:

Trip Planner

Search our weather history database for the weather conditions in past years. The results will help you decide how hot, cold, wet, or windy it might be!

Date:

Astronomy

Jun. 26, 2013 Rise Set
Actual Time 6:27 AM EDT 8:23 PM EDT
Civil Twilight 6:00 AM EDT 8:49 PM EDT
Nautical Twilight 5:28 AM EDT 9:22 PM EDT
Astronomical Twilight 4:53 AM EDT 9:56 PM EDT
Moon 11:07 PM EDT (6/26) 9:58 AM EDT (6/26)
Length of Visible Light 14h 49m
Length of Day
13h 55m
Waning Gibbous, 85% of the Moon is Illuminated
Jun 26
Waning Gibbous
Jun 30
Last Quarter
Jul 8
New
Jul 15
First Quarter
Jul 22
Full

Hourly Weather History & Observations

Time (EDT) Temp. Heat Index Dew Point Humidity Pressure Visibility Wind Dir Wind Speed Gust Speed Precip Events Conditions
12:58 AM 79.7 °F - 75.9 °F 88% 30.09 in 10.0 mi SE 6.9 mph - N/A   Clear
1:58 AM 79.9 °F - 76.3 °F 89% 30.09 in 10.0 mi SSE 8.1 mph - N/A   Clear
2:58 AM 80.1 °F 85.5 °F 76.3 °F 88% 30.06 in 10.0 mi SSE 9.2 mph - N/A   Clear
3:58 AM 79.9 °F - 75.7 °F 87% 30.06 in 10.0 mi South 8.1 mph - N/A   Clear
4:58 AM 79.3 °F - 75.0 °F 87% 30.04 in 10.0 mi South 5.8 mph - N/A   Clear
5:58 AM 79.3 °F - 75.2 °F 87% 30.08 in 10.0 mi SSE 4.6 mph - N/A   Clear
6:58 AM 79.2 °F - 75.4 °F 88% 30.09 in 10.0 mi South 3.5 mph - N/A   Clear
7:58 AM 81.5 °F 88.5 °F 76.1 °F 84% 30.11 in 10.0 mi SSW 5.8 mph - N/A   Clear
8:58 AM 83.3 °F 91.1 °F 75.6 °F 77% 30.09 in 10.0 mi SSW 9.2 mph - N/A   Clear
9:58 AM 85.1 °F 93.7 °F 75.0 °F 72% 30.09 in 10.0 mi South 10.4 mph - N/A   Scattered Clouds
10:58 AM 84.4 °F 93.5 °F 75.9 °F 76% 30.11 in 10.0 mi East 9.2 mph - N/A Thunderstorm Partly Cloudy
11:33 AM 84.2 °F 94.1 °F 77.0 °F 79% 30.10 in 9.0 mi SE 10.4 mph - N/A Rain Light Rain
11:51 AM 82.4 °F 92.4 °F 78.8 °F 89% 30.10 in 10.0 mi ESE 10.4 mph - N/A   Partly Cloudy
11:58 AM 83.1 °F 93.3 °F 78.3 °F 85% 30.12 in 10.0 mi SE 11.5 mph - 0.02 in   Scattered Clouds
12:00 PM 82.4 °F 90.9 °F 77.0 °F 84% 30.10 in 9.0 mi SE 12.7 mph - N/A Rain Light Rain
12:40 PM 80.6 °F 87.1 °F 77.0 °F 89% 30.09 in 10.0 mi SE 8.1 mph - N/A   Partly Cloudy
12:48 PM 82.4 °F 90.9 °F 77.0 °F 84% 30.09 in 10.0 mi ESE 8.1 mph - N/A   Light Drizzle
12:58 PM 82.9 °F 92.8 °F 78.1 °F 85% 30.11 in 10.0 mi ESE 9.2 mph - 0.04 in   Light Drizzle
12:59 PM 82.4 °F 92.4 °F 78.8 °F 89% 30.09 in 10.0 mi ESE 9.2 mph - N/A   Clear
1:38 PM 82.4 °F 90.9 °F 77.0 °F 84% 30.10 in 10.0 mi SE 9.2 mph - N/A Thunderstorm Thunderstorm
1:53 PM 82.4 °F 90.9 °F 77.0 °F 84% 30.08 in 10.0 mi SE 11.5 mph - N/A Thunderstorm Clear
1:58 PM 82.2 °F 90.1 °F 76.5 °F 83% 30.11 in 10.0 mi SE 11.5 mph - 0.00 in Thunderstorm Clear
2:58 PM 83.7 °F 93.4 °F 77.4 °F 81% 30.09 in 10.0 mi ESE 10.4 mph - N/A   Clear
3:58 PM 83.5 °F 92.2 °F 76.5 °F 79% 30.08 in 10.0 mi SE 12.7 mph - N/A   Clear
4:58 PM 82.4 °F 90.1 °F 76.1 °F 81% 30.09 in 10.0 mi SSE 6.9 mph - N/A   Clear
5:12 PM 82.4 °F 90.9 °F 77.0 °F 84% 30.07 in 10.0 mi SSE 8.1 mph - N/A   Light Drizzle
5:34 PM 82.4 °F 89.5 °F 75.2 °F 79% 30.06 in 10.0 mi SSE 8.1 mph - N/A   Clear
5:58 PM 81.3 °F 87.8 °F 75.6 °F 83% 30.08 in 10.0 mi South 10.4 mph - 0.00 in   Clear
6:58 PM 81.0 °F 86.3 °F 74.3 °F 80% 30.06 in 10.0 mi South 5.8 mph - N/A   Clear
7:58 PM 79.9 °F - 74.8 °F 85% 30.06 in 10.0 mi SW 8.1 mph - N/A   Clear
8:58 PM 78.8 °F - 74.7 °F 87% 30.04 in 10.0 mi South 2.3 mph - N/A   Clear
9:58 PM 79.0 °F - 74.8 °F 87% 30.08 in 10.0 mi South 3.5 mph - N/A   Clear
10:58 PM 79.2 °F - 75.0 °F 87% 30.09 in 10.0 mi South 4.6 mph - N/A   Clear
11:58 PM 77.9 °F - 74.8 °F 90% 30.08 in 10.0 mi South 4.6 mph - N/A   Clear